COSMOS 1275 DEB

Satellite information

Favourite Embed

Satellite Type and Status

DEBRISIN ORBIT

Key statistics

Satellite COSMOS 1275 DEB at a glance.

Uptime

16104

Days in orbit

Revolutions

≈ 13.7

Per day

Orbit

LEO

Low Earth Orbit

Inclination

83.0

Latest

Satellite identification and parameters

Extended collection of information and parameters for COSMOS 1275 DEB.

Object identification

Identified? True

Debris? True

Object name: COSMOS 1275 DEB

International designator: 1981-053LH

Object number (NORAD): 17638

Object ID (CCSDS): 17638

Country: COMMONWEALTH OF INDEPENDENT STATES (CIS)

Current information (Y/N): Y

RCS size: SMALL

Orbital parameters

Period: 104.905 minutes

Inclination: 82.9914 deg

SMA: 7368.124 km

Apoapsis: 1070.197 km

Periapsis: 909.781 km

RAAN: 182.3559 deg

Eccentricy: 0.0108858

Argument of periapsis: 112.1695 deg

Mean anomaly: 310.6936 deg

Mean motion: 13.72673841 rev/day

Mean motion (dot): 0.00001018 rev/day2

B* drag term: 0.001046 1/REarth

Two-line elements (TLE)

Creation date: July 6, 2025, 6:05 p.m.

Reference frame: TEME

Reference center: EARTH

Epoch: July 6, 2025, 7:01 a.m. UTC

TLE line 0: 0 COSMOS 1275 DEB

TLE line 1: 1 17638U 81053LH 25187.29254925 .00001018 00000-0 10460-2 0 9996

TLE line 2: 2 17638 82.9914 182.3559 0108858 112.1695 310.6936 13.72673841997463

Live tracking on map

Real-time ground track for satellite COSMOS 1275 DEB.

In-orbit conjunctions

A list of the most updated potential collisions computed for object COSMOS 1275 DEB.

Target Orbit TCA Probability of collision Miss distance Type
SL-8 R/B LEO 2025-04-05 12:29:04 0.0001622453 607.0 (m) ROCKET BODY
CALSPHERE 1 SSO 2025-01-31 05:54:17 0.0001309519 998.0 (m) PAYLOAD

Associated space launch

Navigation satellite providing location information for the Tsiklon-B navigation system

COSMOS 1275 DEB was lifted into orbit during the mission ‘Kosmos-3M | Parus 27’, on board a Kosmos-3M space rocket.

The launch took place on June 4, 1981, 3:41 p.m. from 132/2.

For more information about the launch, click the button.

Launch to space Kosmos-3M | Parus 27
Kosmos-3M | Parus 27

Agency: N/A

Status: Launch Successful

Launch date: June 4, 1981, 3:41 p.m. UTC

Rocket: Kosmos-3M

Launch pad: 132/2

Location: Plesetsk Cosmodrome, Russian Federation

...

Latest news about this satellite

There are no fresh news available about this satellite. Check back as we update our databases every day.


Newsletter sign-up

Weekly statistics, charts and insights to help you stay on top of the space industry.